Content
SEND FEEDBACK

Daily
Averages
Monthly
Summary
Philippines

QUEZON CITY, PHILIPPINES


Home > Asia > Philippines
Elevation: 46 meters     Latitude: 14 39N     Longitude: 121 03E

WEATHER
 
SELECT A DAY
Number of Records: 172,421;   Date Range: 7/1/96 - 7/23/14
 
SHARE

PRINT THIS DATA

[ ← Previous Day ]
WEATHER ALMANAC - 14 JUNE, 2013
[ Next Day → ]
[ °F ]   °C
Weather ElementAverageHighLow
Temperature28.6 °C33 °C (3:00 pm)26 °C (1:00 am)
Dewpoint25.6 °C27.2 °C (8:00 am)23 °C (4:00 pm)
Humidity84.1 %100 % (1:00 am)54 % (2:00 pm)
Barometer1005.8 hPa1007.8 hPa (11:00 pm)1003 hPa (3:00 pm)
Wind Speed8 km/h22.2 km/h (5:00 pm)
Weather ElementAverage
Visibility9.7 km
Wind DirectionENE (66.9 °)

Weather ElementTotal
Precipitation---
Cooling Degree Days11.2 (Base 18.3)
Growing Degree Days19.5 (Base 10)
Averaged from 31 records on 14 June, 2013
WEATHER CONDITIONS BREAKOUT
WIND DIRECTION BREAKOUT
WEATHER BY HOUR - 14 JUNE, 2013
[ °F ]   °C
Local TimeTemperatureDewpointHumidityBarometerVisibilityWind DirectionWind SpeedGust SpeedPrecipitationEventsConditions
1:00 AM26 °C26 °C100 %1005.1 hPa10 kmVariable1.9 km/hRainLight Rain
2:00 AM26.1 °C26.1 °C100 %1005.8 hPa9.7 kmCalmRainLight Rain
2:00 AM26 °C26 °C100 %1005.1 hPa10 kmCalmRainLight Rain
3:00 AM26 °C26 °C100 %1005.1 hPa10 kmCalmRainLight Rain
4:00 AM26 °C26 °C100 %1004.1 hPa10 kmCalmScattered Clouds
5:00 AM26.1 °C26.1 °C100 %1005.1 hPa9.7 kmCalmHaze
5:00 AM26 °C26 °C100 %1004.1 hPa10 kmCalmPartly Cloudy
6:00 AM26 °C26 °C100 %1005.1 hPa10 kmCalmOvercast
7:00 AM27 °C27 °C100 %1006.1 hPa9 kmCalmOvercast
8:00 AM28.3 °C27.2 °C91 %1006.4 hPa9.7 kmEast (100°)3.5 km/hHaze
8:00 AM29 °C27 °C89 %1006.1 hPa9 kmEast (100°)3.7 km/hOvercast
9:00 AM30 °C26 °C79 %1006.1 hPa10 kmEast (80°)11.1 km/hMostly Cloudy
10:00 AM31 °C25 °C70 %1006.1 hPa10 kmVariable9.3 km/hMostly Cloudy
11:00 AM31.7 °C25 °C61 %1005.8 hPa9.7 kmESE (110°)10.8 km/hHaze
11:00 AM32 °C25 °C66 %1006.1 hPa10 kmESE (110°)13 km/hMostly Cloudy
12:00 PM32 °C25 °C66 %1006.1 hPa10 kmESE (120°)13 km/hMostly Cloudy
1:00 PM32 °C26 °C70 %1006.1 hPa10 kmESE (120°)14.8 km/hMostly Cloudy
2:00 PM32.2 °C23.9 °C54 %1004.4 hPa9.7 kmSE (130°)14.3 km/hHaze
2:00 PM32 °C24 °C62 %1004.1 hPa10 kmSE (130°)14.8 km/hMostly Cloudy
3:00 PM33 °C24 °C59 %1003 hPa10 kmVariable13 km/hMostly Cloudy
4:00 PM33 °C23 °C55 %1004.1 hPa10 kmSE (140°)14.8 km/hMostly Cloudy
5:00 PM27.8 °C25.6 °C85 %1004.7 hPa9.7 kmENE (70°)21.6 km/hRainLight Rain Showers
5:00 PM28 °C26 °C89 %1005.1 hPa10 kmENE (70°)22.2 km/hRainLight Rain Showers
6:00 PM26 °C25 °C94 %1006.1 hPa5 kmEast (90°)22.2 km/hRainRain
7:00 PM27 °C25 °C89 %1006.1 hPa10 kmEast (90°)7.4 km/hRainLight Rain
8:00 PM27.8 °C26.1 °C87 %1006.8 hPa9.7 kmEast (100°)10.8 km/hOvercast
8:00 PM28 °C26 °C89 %1006.1 hPa10 kmEast (100°)9.3 km/hThunderstormThunderstorm
9:00 PM28 °C26 °C89 %1007.1 hPa10 kmVariable3.7 km/hMostly Cloudy
10:00 PM28 °C26 °C89 %1007.1 hPa10 kmEast (90°)3.7 km/hOvercast
11:00 PM27.8 °C25.6 °C85 %1007.8 hPa9.7 kmEast (90°)3.5 km/hHaze
11:00 PM28 °C26 °C89 %1007.1 hPa10 kmEast (100°)5.6 km/hOvercast
Hourly data recorded from RPLL, located 0 kilometers away from Quezon City, Philippines







STORIES FROM OUR PARTNERS